Regional Weather Roundup
Issued by NWS Sioux Falls, SD

Home | Current Version | Previous Version | Text Only | Print | Product List | Glossary On
Versions: 1 2 3 4 5 6 7 8 9 10 11 12 13 14 15 16 17 18 19 20 21 22 23 24 25 26 27 28 29 30 31 32 33 34 35 36 37 38 39 40 41 42 43 44 45 46 47 48 49 50
000
ASUS43 KFSD 220802
RWRFSD

WEATHER ROUNDUP FOR SE SOUTH DAKOTA/SW MINNESOTA/NW IOWA
NATIONAL WEATHER SERVICE SIOUX FALLS SD
300 AM CDT MON MAY 22 2017

NOTE: "FAIR" INDICATES FEW OR NO CLOUDS BELOW 12,000 FEET WITH NO
SIGNIFICANT WEATHER AND OR OBSTRUCTIONS TO VISIBILITY.


SDZ038>040-050-052>070-220900-
SOUTHEAST SOUTH DAKOTA

CITY           SKY/WX    TMP DP  RH WIND       PRES   REMARKS
BROOKINGS      MOCLDY    45  42  89 CALM      29.92F
CHAMBERLAIN    NOT AVBL
HURON          CLOUDY    46  44  93 SW5       29.92S
MADISON        CLOUDY    46  46 100 CALM      29.93S
MITCHELL       CLOUDY    53  45  74 W12       29.94S
SIOUX FALLS    CLOUDY    53  44  71 VRB6      29.93S
WINNER         FAIR      50  44  80 W12       29.99F
YANKTON        CLOUDY    57  44  62 S10       29.96F
$$

MNZ071-072-080-081-089-090-097-098-220900-
SOUTHWEST MINNESOTA

CITY           SKY/WX    TMP DP  RH WIND       PRES   REMARKS
FAIRMONT       PTCLDY    42  40  92 S6        29.94F
JACKSON        PTCLDY    43  39  87 CALM      29.94F
LUVERNE        MOCLDY    45  41  87 W8        29.94S
MARSHALL       CLEAR     41  39  93 NE6       29.91F
MONTEVIDEO     CLEAR     45  41  87 W6        29.91S
PIPESTONE      MOCLDY    46  39  76 CALM      29.93F
REDWOOD FALLS  CLEAR     45  40  82 SW9       29.91F
TRACY          CLEAR     47  44  90 SW10      29.91F
WINDOM         CLEAR     43  41  93 S6        29.94S
WORTHINGTON    PTCLDY    45  41  86 SW9       29.93F
$$

IAZ001>003-012>014-020>022-031-032-NEZ013-014-SDZ071-220900-
NORTHWEST IOWA

CITY           SKY/WX    TMP DP  RH WIND       PRES   REMARKS
DENISON        PTCLDY    52  45  76 S9G15     30.00F
ESTHERVILLE    CLEAR     44  41  89 S7        29.94F
LE MARS        CLOUDY    52  45  76 S10G16    29.96F
ORANGE CITY    PTCLDY    52  46  82 SW14      29.95F
SHELDON        CLOUDY    50  45  81 SW12        N/A
SIOUX CITY     CLOUDY    55  45  68 SW15      29.98F
SPENCER        PTCLDY    47  43  86 SW13      29.94F
STORM LAKE     PTCLDY    50  43  76 SW13      29.96F
$$

ABBREVIATIONS USED IN REMARKS
   TC - TEMPERATURE IN CELSIUS
  WCI - WIND CHILL INDEX
   HX - HEAT INDEX
  VSB - VISIBILITY





USA.gov is the U.S. government's official web portal to all federal, state and local government web resources and services.